Regional Weather Roundup
Issued by NWS

Home | Current Version | Previous Version | Graphics & Text | Print | Product List | Glossary On
Versions: 1 2 3 4 5 6 7 8 9 10 11 12 13 14 15 16 17 18 19 20 21 22 23 24 25 26 27 28 29 30 31 32 33 34 35 36 37 38 39 40 41 42 43 44 45 46 47 48 49 50
000
ASUS45 KBOU 241907
RWRCO

WEATHER ROUNDUP FOR COLORADO
NATIONAL WEATHER SERVICE DENVER/BOULDER CO
100 PM MDT SAT JUN 24 2017

NOTE: "FAIR" INDICATES FEW OR NO CLOUDS BELOW 12000 FEET WITH NO
SIGNIFICANT WEATHER AND/OR OBSTRUCTIONS TO VISIBILITY.

COZ001>005-013-030-031-242000-
...NORTHWEST COLORADO...

CITY           SKY/WX    TMP DP  RH WIND       PRES   REMARKS
CRAIG          FAIR      76  16  10 MISG      30.32F
HAYDEN         FAIR      70  28  21 CALM      30.34F
MEEKER         FAIR      77  27  15 NE14G22   30.32F
RABBIT EARS PA FAIR      55  30  38 W6        30.57S
STEAMBOAT SPGS FAIR      69  32  25 S3        30.35F
WALDEN         FAIR      64  28  25 W3        30.42F
$$

COZ006>008-011-242000-
...WEST CENTRAL VALLEYS...

CITY           SKY/WX    TMP DP  RH WIND       PRES   REMARKS
GRAND JUNCTION FAIR      90  24   9 W13       30.15F
MONTROSE       FAIR      83  28  13 N8        30.22F
EAGLE          SUNNY     81  28  15 W8        30.28F
RIFLE          FAIR      84  24  11 VRB7G18   30.21F
DELTA          FAIR      89  26  10 S10G18    30.16F
NUCLA          FAIR      86  19   8 NW5       30.26S
$$

COZ017>023-064>068-242000-
...SOUTHWEST COLORADO...

CITY           SKY/WX    TMP DP  RH WIND       PRES   REMARKS
DURANGO        FAIR      82  34  17 S5        30.25F
CORTEZ         FAIR      88  27  11 MISG      30.21F
PAGOSA SPRINGS FAIR      78  34  20 S12       30.33F
TELLURIDE      FAIR      74  14  10 W12G17    30.47S
WOLF CREEK PAS FAIR      55  39  54 SW16G24   30.68F
$$

COZ009-010-012-014-032>034-037-058>063-242000-
...CENTRAL COLORADO...

CITY           SKY/WX    TMP DP  RH WIND       PRES   REMARKS
ASPEN          FAIR      76  23  14 NW9G21    30.34F
BUENA VISTA    FAIR      76  23  13 SE7       30.31F
COPPER MTN     FAIR      59  10  14 NW18G29   30.63F
BERTHOUD PASS  FAIR      46  34  61 NW25G38   30.66R
COTTONWOOD PAS FAIR      73  28  19 E6G17     30.46F
GUNNISON       FAIR      77  26  15 N10       30.31F
KREMMLING      NOT AVBL
LEADVILLE      FAIR      67   4   8 NW13G28   30.47S
MONARCH PASS   FAIR      59  21  23 SW24G35   30.73F
SALIDA         FAIR      77  42  28 SE17G25   30.35F
SUNLIGHT       FAIR      61  25  25 SW12G21   30.60S
WILKERSON PASS FAIR      57  37  47 SE3       30.60F
$$

COZ069>075-242000-
...SAN LUIS VALLEY/SANGRE DE CRISTO MOUNTAINS...

CITY           SKY/WX    TMP DP  RH WIND       PRES   REMARKS
ALAMOSA        FAIR      76  41  28 S8        30.30F
DEL NORTE      FAIR      74  46  36 E10       30.33F
LA VETA PASS   CLOUDY    54  46  76 N10G16    30.63S HAZE
SAGUACHE       FAIR      77  37  24 SW6       30.31F
$$

COZ035-036-038>040-242000-
...NORTHERN COLORADO FRONT RANGE...

CITY           SKY/WX    TMP DP  RH WIND       PRES   REMARKS
DENVER INTL AP PTSUNNY   70  47  43 NE8       30.31F
DMNS CITY PARK   N/A     68  49  49 N10       30.32F
AURORA         PTSUNNY   68  49  50 NW10      30.33F
FRONT RANGE AP FAIR      72  46  40 CALM      30.32F
ERIE MUNI ARPT CLOUDY    68  47  47 W3        30.32F
BOULDER MUN AP CLOUDY    64  45  48 W3        30.33F
CENTENNIAL     PTSUNNY   68  49  50 NW6       30.33F
BROOMFIELD     PTSUNNY   66  46  48 N5        30.35F
FORT COLLINS   PTSUNNY   70  45  40 SW3       30.33F
LONGMONT       PTSUNNY   73  46  37 N8        30.33F
$$

COZ041-046-047-076>085-087-088-242000-
...PIKES PEAK/PALMER DIVIDE AND SOUTHERN FOOTHILLS...

CITY           SKY/WX    TMP DP  RH WIND       PRES   REMARKS
COLO. SPRINGS  PTSUNNY   65  46  50 SE12G17   30.35S
A. F. ACADEMY  CLOUDY    64  45  49 SE10      30.36R
SCHRIEVER AFB  PTSUNNY   64  45  48 SE13      30.36F
CHEYENNE MTN   CLOUDY    59  46  63 SE9       30.33S
ELLICOTT       CLOUDY   N/A N/A N/A SE14G20   30.35R
FALCON           N/A     64  42  44 S12G22    30.40S
FORT CARSON    PTSUNNY   68  47  47 E13G20    30.32F
LIMON          CLOUDY    67  47  48 SE15G22   30.35S
MONUMENT HILL  CLOUDY    63  45  51 S6G17     30.40S
CANON CITY     MOSUNNY   73  52  46 E12G17    30.28F
WALSENBURG     CLOUDY    72  50  46 CALM      30.31F
TRINIDAD       CLOUDY    70  47  43 N7        30.30F
$$

COZ042>045-048>051-090-091-242000-
...NORTHEAST COLORADO...

CITY           SKY/WX    TMP DP  RH WIND       PRES   REMARKS
GREELEY ARPT   FAIR      71  47  42 E6        30.32F
AKRON          CLOUDY    68  44  42 E7        30.32F
BURLINGTON     CLOUDY    70  47  43 S9G17     30.31S
WRAY           CLOUDY    72  45  37 S5        30.30S
YUMA           CLOUDY    64  48  55 E8        30.31F
STERLING       CLOUDY    70  41  35 E7        30.29F
HOLYOKE        NOT AVBL
FORT MORGAN    FAIR      73  42  33 E7        30.31F
$$

COZ086-089-092>099-242000-
...SOUTHEAST COLORADO...

CITY           SKY/WX    TMP DP  RH WIND       PRES   REMARKS
PUEBLO         FAIR      74  49  41 SE9       30.27F
LA JUNTA       FAIR      74  47  38 SE15G24   30.26F
LAMAR          PTSUNNY   77  46  33 S13G23    30.25F
SPRINGFIELD      N/A     69  46  43 S16G23    30.30F
$$



USA.gov is the U.S. government's official web portal to all federal, state and local government web resources and services.